User: anonymous   Login
Location: Morlupo
(42.1333°N, 12.5000°E)
Time: 21:26:31
(UTC+00:00)
Language:

Ariane Rocket - Orbit

View from above orbital plane
View from above orbital plane
View from above satellite
View from above satellite

Ground track
Ground track

The orbit data is extracted from the following two-line orbital elements,

1 23561U 95021B   21134.37138663  .00000039  00000-0  28052-4 0  9995
2 23561  98.6773 183.8387 0006773   2.8853   7.7393 14.38024888366354
Epoch (UTC): 14 May 2021 08:54:47
Eccentricity: 0.0006773
inclination: 98.6773°
perigee height: 760 km
apogee height: 770 km
right ascension of ascending node: 183.8387°
argument of perigee: 2.8853°
revolutions per day: 14.38024888
mean anomaly at epoch: 7.7393°
orbit number at epoch: 36635

The dashed part of the orbit path shows where the satellite is in the earth's shadow,  

DLR